Weather in Tarbes

France     43°14′21″N   0°04′02″E
temp.,
°C
wind,
m/s
gust,
m/s
humid.,
%
clouds,
%
prec.,
mm/h
press.,
hPa
HPBL,
m
25 february, thu
thu2501:00+10s334420 0.0 102946
04:00+9sw23423 0.0 102829
07:00+8ssw23461 0.0 102830
10:00+13s224935 0.0 1028101
13:00+17n224868 0.0 1029499
16:00+16nne2262100 0.0 1028524
19:00+10nne1187100 0.0 102922
22:00+9wsw1288100 0.0 103122
26 february, fri
fri2601:00+8wsw2492100 0.0 103279
04:00+7wsw1291100 0.0 103125
07:00+7sw1190100 0.0 103122
10:00+10w128090 0.0 1032270
13:00+14wnw227291 0.0 1031689
16:00+13nw2276100 0.0 1030642
19:00+10w248993 0.1 1030193
22:00+9w479563 0.0 1032332
27 february, sat
sat2701:00+9w369381 0.1 1032368
04:00+8w3695100 0.2 1032304
07:00+7n3497100 0.8 1031285
10:00+7nnw1290100 0.4 1032273
13:00+8nw237697 0.4 1031573
16:00+11w236565 0.0 1029894
19:00+7nw118148 0.0 102922
22:00+7ssw018256 0.0 103022
28 february, sun
sun2801:00+5ssw128729 0.0 103022
04:00+4sw11910 0.0 102922
07:00+3s11910 0.0 102822
10:00+8ene12750 0.0 1028231
13:00+12ne33630 0.0 1026781
16:00+13ene336514 0.0 1024863
19:00+8ene359115 0.0 1024115
22:00+6e229033 0.0 102556
1 march, mon
mon101:00+6se118257 0.0 102524
04:00+5s116913 0.0 102423
07:00+6s115750 0.0 102423
10:00+11e11538 0.0 102494
13:00+15ne224610 0.0 1023427
16:00+16ne235575 0.0 1022541
19:00+10ene128478 0.0 102322
22:00+9s226791 0.0 102526